Regional Weather Roundup
Issued by NWS

Home | Current Version | Previous Version | Graphics & Text | Print | Product List | Glossary On
Versions: 1 2 3 4 5 6 7 8 9 10 11 12 13 14 15 16 17 18 19 20 21 22 23 24 25 26 27 28 29 30 31 32 33 34 35 36 37 38 39 40 41 42 43 44 45 46 47 48 49 50
000
ASUS43 KBIS 040310
RWRND

NORTH DAKOTA REGIONAL WEATHER ROUNDUP
NATIONAL WEATHER SERVICE BISMARCK ND
1000 PM CDT TUE MAY 03 2016

NOTE: "FAIR" INDICATES FEW OR NO CLOUDS BELOW 12,000 FEET WITH NO
SIGNIFICANT WEATHER AND/OR OBSTRUCTIONS TO VISIBILITY.


NDZ001>003-009>011-017-040400-
NORTHWEST NORTH DAKOTA

CITY           SKY/WX    TMP DP  RH WIND       PRES   REMARKS
WILLISTON      CLEAR     62  40  44 E5        30.04R
MINOT          CLEAR     56  26  31 NW3       30.03R
MINOT AFB      CLEAR     61  28  29 NE2       30.02R
$$

NDZ018>021-031>035-040>046-040400-
SOUTHWEST NORTH DAKOTA

CITY           SKY/WX    TMP DP  RH WIND       PRES   REMARKS
BISMARCK       CLEAR     60  28  29 NE10      30.02R
DICKINSON      CLEAR     61  37  41 N5        30.05R
GARRISON         N/A     55  32  41 NE3       30.03R
HETTINGER ARPT CLEAR     59  36  42 NE12      30.08R
$$

NDZ004>008-012>016-024-026-027-054-040400-
NORTHEAST NORTH DAKOTA

CITY           SKY/WX    TMP DP  RH WIND       PRES   REMARKS
GRAND FORKS    CLEAR     50  31  48 N10       29.98R
GRND FRKS AFB  CLEAR     49  32  52 N9        29.99R
DEVILS LAKE    CLEAR     51  29  42 NE10      30.04R
$$

NDZ022-023-025-028>030-036>039-047>053-040400-
SOUTHEAST NORTH DAKOTA

CITY           SKY/WX    TMP DP  RH WIND       PRES   REMARKS
FARGO          CLEAR     56  28  34 N17       29.94R
JAMESTOWN      CLEAR     51  26  37 NE13      29.99R
$$





USA.gov is the U.S. government's official web portal to all federal, state and local government web resources and services.